Overview Statistics Trail Chart Weather Telemetry Raw packets
 

This is the latest recevied weather packets stored in our database for station/object K6CED. If no packets are shown the sender has not sent any weather packets the latest 10 day(s).

<< 94 95 96 97 98 99 100 >>
Time Temp. Humidity Pressure Rain* Wind** Luminosity Snow
1787964896 32.78° C 49% 1013.9 hPa 0 mm - 161 W/m² -
1787964591 33.89° C 48% 1013.8 hPa 0 mm - 184 W/m² -
1787964286 33.33° C 48% 1013.8 hPa 0 mm - 214 W/m² -
1787963986 33.33° C 48% 1013.8 hPa 0 mm - 234 W/m² -
1787963681 33.33° C 48% 1013.4 hPa 0 mm - 251 W/m² -
1787963380 33.89° C 46% 1013.6 hPa 0 mm - 269 W/m² -
1787963076 34.44° C 45% 1013.5 hPa 0 mm - 283 W/m² -
1787962775 33.89° C 46% 1013.8 hPa 0 mm - 281 W/m² -
1787962474 33.89° C 46% 1013.5 hPa 0 mm - 262 W/m² -
1787962173 33.89° C 45% 1013.6 hPa 0 mm - 267 W/m² -
1787961868 33.89° C 44% 1013.3 hPa 0 mm - 281 W/m² -
1787961566 35° C 43% 1013.2 hPa 0 mm - 298 W/m² -
1787961261 35° C 42% 1013.2 hPa 0 mm - 312 W/m² -
1787960961 35° C 42% 1013.1 hPa 0 mm - 324 W/m² -
1787960656 35° C 43% 1013.2 hPa 0 mm - 339 W/m² -
1787960354 35.56° C 42% 1013 hPa 0 mm - 353 W/m² -
1787960049 36.11° C 42% 1013.1 hPa 0 mm - 367 W/m² -
1787959744 35.56° C 43% 1013 hPa 0 mm - 382 W/m² -
1787959439 36.11° C 42% 1013.1 hPa 0 mm - 403 W/m² -
1787959134 36.11° C 42% 1013.2 hPa 0 mm - 421 W/m² -
1787958829 36.67° C 41% 1012.9 hPa 0 mm - 445 W/m² -
1787958524 36.67° C 39% 1013.1 hPa 0 mm - 466 W/m² -
1787958221 37.78° C 39% 1013.1 hPa 0 mm - 481 W/m² -
1787957914 37.78° C 38% 1013.2 hPa 0 mm - 499 W/m² -
1787957614 37.78° C 37% 1013.3 hPa 0 mm - 516 W/m² -

* Rain latest hour (hover to see other rain measurements)
** Current wind speed in m/s (hover to see current wind gust speed)